Location: Centerville
(32.8776°N, 96.6203°W)
Time: 02:24:46
(UTC+00:00)

CENTAUR R/B - Pass Details

Date: 17 June 2021
Orbit: 740 x 1447 km, 63.4° (Epoch: 17 July)

Event Time Altitude Azimuth Distance (km) Brightness Sun altitude
Rises 03:13:14 0° 241° (WSW) 3,330 5.5 -17.1°
Reaches altitude 10° 03:15:50 10° 253° (WSW) 2,478 5.0 -17.5°
Maximum altitude 03:20:47 29° 313° (NW) 1,648 4.5 -18.3°
Drops below altitude 10° 03:26:30 10° 11° (NNE) 2,877 5.4 -19.1°
Sets 03:29:47 0° 22° (NNE) 3,965 6.0 -19.6°
